sat.trackr.live / text

‹ back to catalog

STARLINK-31267

NORAD 59468 · 2024-068P

PAYLOAD ACTIVE UNKNOWN

§ Identity

Operator
Country
US
Launch date
2024-04-10
Launch site
AFETR
Launch vehicle
Mass (kg)
RCS (m²)

Purposes: comms

External: N2YO · Heavens-Above · Gunter

§ Orbital elements

Epoch: 2026-05-24T22:40:48.025056Z

Period
94.27 min
Inclination
43.0024°
Eccentricity
0.0001644
Mean motion
15.27580482 rev/d
Perigee alt
481.9 km
Apogee alt
484.2 km
Semi-major
6,861.2 km
B*
3.7874e-5
RAAN
319.6503°
Arg perigee
266.2376°
Mean anomaly
93.8287°
Rev number
12,023

§ Raw data

STARLINK-312671 59468U 24068P   26144.94500029  .00000780  00000+0  37874-4 0  99952 59468  43.0024 319.6503 0001644 266.2376  93.8287 15.27580482120238

JSON: /api/v1/satellites/59468 · /tle

For live sub-satellite position, see the globe view (requires WebGL).

§ Visibility from observer

Set your observer location to see the next 7 days of passes ≥ 10°. The values pass through the URL so the page stays shareable.

No JS? Fill the form by hand. The geolocation button needs JavaScript.